This is the latest recevied weather packets stored in our database for station/object UR7D-12. If no packets are shown the sender has not sent any weather packets the latest 10 day(s).
| Time | Temp. | Humidity | Pressure | Rain* | Wind** | Luminosity | Snow |
|---|---|---|---|---|---|---|---|
| 1777871911 | 10.56° C | 72% | 993.7 hPa | 0 mm | - | - | - |
| 1777871610 | 10° C | 73% | 993.7 hPa | 0 mm | - | - | - |
| 1777871311 | 10° C | 74% | 993.6 hPa | 0 mm | - | - | - |
| 1777871010 | 10° C | 74% | 993.7 hPa | 0 mm | - | - | - |
| 1777870709 | 9.44° C | 74% | 993.7 hPa | 0 mm | - | - | - |
| 1777870410 | 9.44° C | 74% | 993.6 hPa | 0 mm | - | - | - |
| 1777870109 | 9.44° C | 74% | 993.4 hPa | 0 mm | - | - | - |
| 1777869809 | 9.44° C | 74% | 993.4 hPa | 0 mm | - | - | - |
| 1777868909 | 9.44° C | 74% | 993.4 hPa | 0 mm | - | - | - |
| 1777868607 | 9.44° C | 75% | 993.4 hPa | 0 mm | - | - | - |
| 1777868308 | 9.44° C | 75% | 993.3 hPa | 0 mm | - | - | - |
| 1777868008 | 8.89° C | 75% | 993.2 hPa | 0 mm | - | - | - |
| 1777867707 | 8.89° C | 75% | 993.2 hPa | 0 mm | - | - | - |
| 1777867106 | 8.89° C | 75% | 993.3 hPa | 0 mm | - | - | - |
| 1777866506 | 8.89° C | 76% | 993.1 hPa | 0 mm | - | - | - |
| 1777865906 | 8.33° C | 77% | 993.1 hPa | 0 mm | - | - | - |
| 1777864704 | 8.33° C | 78% | 992.9 hPa | 0 mm | - | - | - |
| 1777863504 | 8.33° C | 77% | 992.9 hPa | 0 mm | - | - | - |
| 1777846687 | 11.11° C | 67% | 992.7 hPa | 0 mm | - | - | - |
| 1777845786 | 11.67° C | 65% | 992.7 hPa | 0 mm | - | - | - |
| 1777845486 | 11.67° C | 64% | 992.6 hPa | 0 mm | - | - | - |
| 1777844585 | 12.22° C | 62% | 992.6 hPa | 0 mm | - | - | - |
| 1777844284 | 12.78° C | 61% | 992.7 hPa | 0 mm | - | - | - |
| 1777843985 | 12.78° C | 60% | 992.7 hPa | 0 mm | - | - | - |
| 1777843385 | 12.78° C | 59% | 992.6 hPa | 0 mm | - | - | - |
* Rain latest hour (hover to see other rain measurements)
** Current wind speed in m/s (hover to see current wind gust speed)